O3B FM20 (44112 NORAD) Tracking and Keplerian Element Data

This shows tracking and keplerian element data for the satellite.

Feedback or suggestion? Click here.




ElementValue
Catalog44112
NameO3B FM20
Epoch Orbit10662
Epoch Day34.48485782
Epoch Year2025
RAAN356.7752
Inclination0.0523
Eccentricity0.0003148
Argument of Perigee327.0144
Mean Anonmoly36.1845
Mean Motion5.00115148
Decay Rate-1.3E-07
L11 44112U 19020A 25034.48485782 -.00000013 00000+0 00000+0 0 9997
L22 44112 0.0523 356.7752 0003148 327.0144 36.1845 5.00115148106623



Live tracking and technical data element details for O3B FM20 (NORAD 44112). O3B FM20 can be tracked NOW for your location showing map with azimuth and elevation plus other details from your city location.







IsCatalogInMostPopularTable: catalog: 44112, numindb: 292
Update: records affected: 1



GetName: 44112 O3B FM20

Hit Count: updated at: Fri, 16 May 2025 10:43:06 GMT